| time (UTC) | temp F | wind direction | speed MPH | gust MPH | rain 1hr in | rain 24hr in | rain mn in | humidity % | barometer mb |
| 20260504201005 | 55 | 146 | 5.0 | 5.0 | 0.00 | 0.00 | 0.00 | 92 | 1017.6 |
| 20260504200004 | 55 | 146 | 5.0 | 6.0 | 0.00 | 0.00 | 0.00 | 92 | 1017.6 |
| 20260504195003 | 55 | 134 | 6.0 | 6.0 | 0.00 | 0.00 | 0.00 | 92 | 1017.3 |
| 20260504194004 | 55 | 157 | 3.0 | 3.0 | 0.00 | 0.00 | 0.00 | 92 | 1017.3 |
| 20260504193004 | 55 | 136 | 2.0 | 2.0 | 0.00 | 0.00 | 0.00 | 92 | 1017.3 |
| 20260504192004 | 55 | 110 | 4.0 | 7.0 | 0.00 | 0.00 | 0.00 | 91 | 1017.3 |
| 20260504191004 | 56 | 170 | 7.0 | 7.0 | 0.00 | 0.00 | 0.00 | 90 | 1017.3 |
| 20260504190004 | 56 | 158 | 7.0 | 7.0 | 0.00 | 0.00 | 0.00 | 90 | 1017.3 |
| 20260504185004 | 56 | 184 | 7.0 | 7.0 | 0.00 | 0.00 | 0.00 | 90 | 1017.3 |
| 20260504184004 | 56 | 184 | 3.0 | 7.0 | 0.00 | 0.00 | 0.00 | 90 | 1017.3 |
| 20260504183004 | 56 | 129 | 7.0 | 7.0 | 0.00 | 0.00 | 0.00 | 90 | 1017.3 |
| 20260504182004 | 57 | 151 | 7.0 | 7.0 | 0.00 | 0.00 | 0.00 | 89 | 1016.9 |
| 20260504181004 | 57 | 151 | 7.0 | 7.0 | 0.00 | 0.00 | 0.00 | 89 | 1016.9 |
| 20260504180004 | 57 | 116 | 5.0 | 6.0 | 0.00 | 0.00 | 0.00 | 90 | 1016.9 |
| 20260504175004 | 57 | 138 | 6.0 | 6.0 | 0.00 | 0.00 | 0.00 | 88 | 1017.3 |
| 20260504173004 | 58 | 248 | 0.0 | 1.0 | 0.00 | 0.00 | 0.00 | 87 | 1017.3 |
| 20260504172006 | 59 | 116 | 1.0 | 1.0 | 0.00 | 0.00 | 0.00 | 87 | 1017.3 |
| 20260504171005 | 59 | 116 | 1.0 | 1.0 | 0.00 | 0.00 | 0.00 | 87 | 1017.3 |
| 20260504151005 | 60 | 224 | 5.0 | 6.0 | 0.00 | 0.00 | 0.00 | 92 | 1016.6 |
| 20260504141005 | 61 | 306 | 6.0 | 6.0 | 0.00 | 0.00 | 0.00 | 91 | 1016.9 |
| 20260504082005 | 59 | 32 | 2.0 | 2.0 | 0.00 | 0.11 | 0.00 | 90 | 1016.9 |
| 20260504081005 | 59 | 113 | 2.0 | 2.0 | 0.00 | 0.11 | 0.00 | 92 | 1016.9 |
| 20260504045006 | 54 | 296 | 1.0 | 1.0 | 0.00 | 0.13 | 0.00 | 99 | 1015.6 |
| 20260504043005 | 55 | 279 | 2.0 | 2.0 | 0.00 | 0.13 | 0.00 | 98 | 1015.6 |
| 20260504042005 | 55 | 324 | 2.0 | 2.0 | 0.00 | 0.13 | 0.00 | 98 | 1015.6 |
| 20260504034005 | 55 | 31 | 0.0 | 0.0 | 0.00 | 0.16 | 0.00 | 98 | 1015.2 |
| 20260504033005 | 55 | 30 | 0.0 | 0.0 | 0.00 | 0.19 | 0.00 | 98 | 1015.2 |
| 20260504032005 | 55 | 30 | 0.0 | 0.0 | 0.00 | 0.19 | 0.00 | 98 | 1015.2 |
| 20260504030004 | 55 | 31 | 0.0 | 0.0 | 0.00 | 0.19 | 0.00 | 98 | 1015.2 |
| 20260504025005 | 55 | 31 | 0.0 | 0.0 | 0.00 | 0.19 | 0.00 | 98 | 1015.2 |
| 20260504024005 | 55 | 31 | 0.0 | 0.0 | 0.00 | 0.19 | 0.00 | 98 | 1015.2 |
| 20260504023005 | 56 | 30 | 0.0 | 0.0 | 0.00 | 0.19 | 0.00 | 98 | 1015.2 |
| 20260504021005 | 56 | 31 | 0.0 | 2.0 | 0.00 | 0.19 | 0.00 | 98 | 1015.2 |
| 20260504020005 | 57 | 30 | 2.0 | 2.0 | 0.00 | 0.19 | 0.00 | 98 | 1014.9 |
| 20260504015004 | 57 | 30 | 2.0 | 2.0 | 0.00 | 0.19 | 0.00 | 98 | 1014.9 |
| 20260504014005 | 57 | 31 | 0.0 | 0.0 | 0.00 | 0.19 | 0.00 | 98 | 1015.2 |
| 20260504013005 | 56 | 29 | 0.0 | 0.0 | 0.00 | 0.19 | 0.00 | 98 | 1015.6 |
| 20260504011005 | 56 | 30 | 0.0 | 2.0 | 0.00 | 0.19 | 0.00 | 98 | 1015.2 |
| 20260504010005 | 56 | 30 | 2.0 | 2.0 | 0.00 | 0.19 | 0.00 | 98 | 1015.2 |
| 20260504005005 | 56 | 31 | 2.0 | 2.0 | 0.00 | 0.19 | 0.00 | 97 | 1014.9 |
| 20260504004004 | 56 | 31 | 2.0 | 2.0 | 0.00 | 0.19 | 0.00 | 97 | 1014.9 |
| 20260504003005 | 56 | 47 | 2.0 | 2.0 | 0.00 | 0.19 | 0.00 | 97 | 1015.2 |
| 20260504002005 | 56 | 47 | 2.0 | 2.0 | 0.00 | 0.19 | 0.00 | 97 | 1015.2 |
| 20260504000005 | 57 | 71 | 3.0 | 3.0 | 0.00 | 0.19 | 0.00 | 97 | 1015.2 |
| 20260503234005 | 57 | 44 | 2.0 | 3.0 | 0.00 | 0.19 | 0.00 | 97 | 1015.2 |
| 20260503230004 | 57 | 26 | 2.0 | 2.0 | 0.00 | 0.22 | 0.00 | 96 | 1015.2 |
| 20260503225005 | 57 | 26 | 2.0 | 2.0 | 0.00 | 0.24 | 0.00 | 96 | 1015.2 |
| 20260503224005 | 57 | 3 | 2.0 | 5.0 | 0.00 | 0.47 | 0.00 | 96 | 1015.2 |
| 20260503222004 | 58 | 11 | 5.0 | 5.0 | 0.00 | 0.65 | 0.00 | 96 | 1014.9 |
| 20260503221004 | 58 | 20 | 2.0 | 2.0 | 0.00 | 0.71 | 0.00 | 95 | 1014.9 |
| 20260503220005 | 58 | 20 | 2.0 | 5.0 | 0.00 | 0.72 | 0.00 | 95 | 1014.9 |
| 20260503215005 | 58 | 38 | 3.0 | 5.0 | 0.00 | 0.72 | 0.72 | 95 | 1014.9 |
| 20260503214005 | 58 | 15 | 5.0 | 5.0 | 0.00 | 0.72 | 0.72 | 95 | 1014.9 |
| 20260503213005 | 58 | 20 | 4.0 | 5.0 | 0.00 | 0.72 | 0.72 | 96 | 1014.9 |
| 20260503211005 | 59 | 23 | 6.0 | 6.0 | 0.00 | 0.72 | 0.72 | 96 | 1014.9 |
| 20260503210005 | 59 | 22 | 3.0 | 6.0 | 0.00 | 0.72 | 0.72 | 96 | 1014.9 |
| 20260503204005 | 60 | 20 | 2.0 | 2.0 | 0.00 | 0.72 | 0.72 | 96 | 1014.6 |
| 20260503203005 | 60 | 20 | 2.0 | 2.0 | 0.00 | 0.72 | 0.72 | 96 | 1014.6 |